Home   Weather   Sault Ste. Marie   Past weeks

Flag for Canada Past Weather in Sault Ste. Marie, Ontario, Canada — Yesterday and Last 2 Weeks

Now
34 °F

Light snow. Overcast.


Feels Like: 31 °F
Forecast: 29 / 36 °F
Wind: 3 mph from North

Location: Sault Ste Marie

Current Time: Dec 3, 2016 at 6:48:54 am

Latest Report: Dec 3, 2016 at 6:00 am


Visibility: 10 mi

Pressure: 30.22 "Hg

Humidity: 93%

Dew Point: 32 °F

Location of Sault Ste. MarieLocation

Past Weather in Sault Ste. Marie — Graph

°F

Sault Ste. Marie Temperature Yesterday

Maximum temperature yesterday: 37 °F (at 12:00 am)
Minimum temperature yesterday: 36 °F (at 1:00 am)
Average temperature yesterday: 36 °F

High & Low Weather Summary for the Past Weeks

 TemperatureHumidityPressure
High59 °F (Nov 18, 10:53 pm)100% (Nov 26, 4:00 am)30.39 "Hg (Nov 26, 4:00 am)
Low12 °F (Nov 22, 6:00 am)50% (Nov 20, 7:00 pm)29.18 "Hg (Nov 29, 5:00 am)
Average35 °F84%29.94 "Hg
* Reported Nov 18 5:00 am — Dec 3 5:00 am, Sault Ste. Marie, Weather by CustomWeather, © 2016

Note: Actual official high and low records may vary slightly from our data, if they occured in-between our weather recording intervals... More about our weather records

Advertising

Sault Ste. Marie Weather History for the Previous 24 Hours

Scroll right to see more
 ConditionsComfort  
Time TempWeatherWind HumidityBarometerVisibility
5:00 am
Sat, Dec 3
32 °FPartly cloudy.No wind93%30.22 "Hg8 mi
4:00 am34 °FPartly cloudy.5 mph87%30.21 "Hg15 mi
3:00 am34 °FLight snow. Overcast.5 mph93%30.21 "Hg12 mi
2:52 am34 °FLight snow. Partly cloudy.5 mph93%30.20 "Hg12 mi
2:00 am34 °FLight snow. Mostly cloudy.3 mph93%30.19 "Hg12 mi
1:00 am34 °FLight rain. Overcast.3 mph93%30.18 "Hg12 mi
12:00 am36 °FOvercast.8 mph81%30.17 "Hg12 mi
11:00 pm
Fri, Dec 2
37 °FLight rain. Overcast.14 mph70%30.16 "Hg12 mi
10:00 pm37 °FLight rain. Mostly cloudy.10 mph75%30.15 "Hg12 mi
9:00 pm37 °FLight rain. Partly cloudy.14 mph75%30.13 "Hg12 mi
8:00 pm37 °FLight rain. Mostly cloudy.15 mph81%30.13 "Hg7 mi
7:00 pm37 °FLight snow. Mostly cloudy.10 mph81%30.11 "Hg15 mi
6:00 pm37 °FLight rain. Mostly cloudy.9 mph81%30.09 "Hg15 mi
5:49 pm37 °FLight rain. Mostly cloudy.10 mph81%30.09 "Hg15 mi
5:00 pm36 °FMostly cloudy.13 mph93%30.08 "Hg15 mi
4:00 pm36 °FLight rain. Mostly cloudy.13 mph93%30.06 "Hg7 mi
3:02 pm37 °FLight rain. Fog.15 mph81%30.03 "Hg6 mi
2:00 pm37 °FMostly cloudy.15 mph81%30.00 "Hg10 mi
1:00 pm37 °FLight rain. Broken clouds.15 mph87%29.98 "Hg8 mi
12:00 pm37 °FLight rain. Overcast.16 mph87%29.97 "Hg7 mi
11:00 am37 °FLight rain. Mostly cloudy.16 mph87%29.96 "Hg7 mi
10:00 am36 °FLight rain. Fog.12 mph93%29.93 "Hg6 mi
9:00 am36 °FLight rain. Mostly cloudy.14 mph93%29.92 "Hg8 mi
8:46 am36 °FLight rain. Mostly cloudy.15 mph93%29.91 "Hg7 mi
8:00 am36 °FLight rain. Overcast.17 mph87%29.89 "Hg8 mi
7:00 am36 °FLight rain. Mostly cloudy.15 mph87%29.87 "Hg15 mi
6:00 am36 °FLight rain. Overcast.15 mph87%29.85 "Hg15 mi
Weather by CustomWeather, © 2016

See weather overviewHow to use our weather pages